STARLINK-2431, 47839

Orbit data source: Space-Track

STARLINK-2431, 47839 is a payload satellite owned by SpaceX/Seattle (US) in LEO that was launched on Thu, 11 Mar 2021 UTC via an FALCON 9 launch vehicle from the Air Force Eastern Test Range (AFETR). Payload-class satellites include a variety of spacecraft equipped with specific instruments for various scientific and technological missions. These include communications satellites like Starlink; space stations such as the ISS; scientific satellites like the Hubble; Earth observation satellites from companies like Planet Labs, Umbra, and HawkEye 360; GPS; miniature CubeSats for education and research; and military/defense satellites.

Loading next visibility...
Identifier
47839, 2021-018BE
Orbit
LEO
Country
Flag of USUS
Related business
Manufacturer
SpaceX/Seattle
Mission
Operational Commercial Communications
Bus & Motor
STARLINK, Unknown motor
Mass
260 kg wet, ~248 kg dry
Launch date (UTC)
2021-03-11 (5 years ago)
Launch vehicle
FALCON 9
Launch site
Air Force Eastern Test Range (AFETR)
Object type
Payload
Rocket body
Debris
Shape & HBR
Box + 1 Pan, 10.1 m
Radar Cross Section
13.562 m², Large (>1 m²)

Expand to show TLE details & history
Last TLE update: 5 hours ago

TLE from 5 hours ago
0 STARLINK-2431
1 47839U 21018BE  26035.83334490  .01338272  00000-0  65638-1 0  9998
2 47839  53.0900   8.9689 0002224  85.3942  40.5286 15.14766145  5832
Epoch: 2026-02-04T20:00Z
TLE epoch observation values (Epoch: 2026-02-04T20:00:00.999Z)
Latitude
40.47354°
Longitude
74.37433°
Altitude
524.208 km
Speed
7.607 km/s
True Right ascension
09h 57m 29s
True Declination
40° 17' 53"
Sunlit
Object was in full shadow at epoch
Visualization orbit readout
Latitude
Unknown
Longitude
Unknown
Altitude
Unknown
Speed
Unknown
Apparent Right ascension
Unknown
Apparent Declination
Unknown
Sunlit
N/A
Visualization observer readout
Local Sidereal Time
02:32:02
Azimuth
Unknown
Elevation
Unknown
Doppler factor
Unknown
Orbital elements
Apogee altitude
523.489 km
Perigee altitude
520.42 km
Semi-major axis
6,900.092 km
Eccentricity
0.00022
Inclination
53.09°
RAAN
8.9689°
Arg. of periapsis
85.3942°
True anomaly
40.54516°
Mean anomaly
40.5286°
Eccentric anomaly
40.53688°
Mean motion
3.7867 °/min
Orbital period
95.07 mins
BSTAR
0.065638
Loading maneuver chart data...
Computing Atmospheric mass density...
Loading historical data...
Loading historical data...
Loading historical data...
Loading historical data...
Loading historical data...
Loading historical data...
Loading historical data...

Documentation

Showing up to 5 results
|